TimeGMT,TemperatureF,Dew PointF,Humidity,Sea Level PressureIn,VisibilityMPH,Wind Direction,Wind SpeedMPH,Gust SpeedMPH,PrecipitationIn,Events,Conditions,WindDirDegrees,DateUTC
12:20 AM,39.2,33.8,81,29.21,6.2,SW,24.2,-,N/A,Rain,Light Rain Showers,230,2012-12-30 00:20:00
12:50 AM,39.2,33.8,81,29.21,6.2,SW,20.7,-,N/A,Rain,Light Rain Showers,230,2012-12-30 00:50:00
1:20 AM,37.4,33.8,87,29.21,6.2,SW,19.6,-,N/A,Rain,Light Rain Showers,230,2012-12-30 01:20:00
1:50 AM,39.2,33.8,81,29.21,6.2,SW,18.4,-,N/A,Rain,Light Rain Showers,230,2012-12-30 01:50:00
2:20 AM,39.2,33.8,81,29.21,6.2,SW,17.3,-,N/A,Rain,Light Rain,230,2012-12-30 02:20:00
2:50 AM,37.4,33.8,87,29.21,6.2,SW,19.6,-,N/A,,Mostly Cloudy,230,2012-12-30 02:50:00
3:20 AM,37.4,33.8,87,29.24,5.0,WSW,17.3,-,N/A,Rain,Light Rain,240,2012-12-30 03:20:00
3:50 AM,37.4,33.8,87,29.24,6.2,WSW,15.0,-,N/A,,Scattered Clouds,240,2012-12-30 03:50:00
4:20 AM,37.4,33.8,87,29.24,6.2,WSW,15.0,-,N/A,,Partly Cloudy,240,2012-12-30 04:20:00
4:50 AM,33.8,32.0,93,29.27,6.2,WSW,16.1,-,N/A,Rain,Light Rain Showers,240,2012-12-30 04:50:00
5:20 AM,35.6,32.0,87,29.27,6.2,WSW,16.1,-,N/A,,Scattered Clouds,240,2012-12-30 05:20:00
5:50 AM,35.6,32.0,87,29.27,6.2,SW,15.0,-,N/A,,Scattered Clouds,230,2012-12-30 05:50:00
6:20 AM,35.6,32.0,87,29.30,6.2,WSW,13.8,-,N/A,Rain,Light Rain Showers,240,2012-12-30 06:20:00
6:50 AM,35.6,33.8,93,29.30,6.2,SW,17.3,-,N/A,Rain,Light Rain,220,2012-12-30 06:50:00
7:20 AM,35.6,33.8,93,29.30,6.2,SW,16.1,-,N/A,,Mostly Cloudy,230,2012-12-30 07:20:00
7:50 AM,37.4,33.8,87,29.30,6.2,SW,17.3,-,N/A,,Scattered Clouds,230,2012-12-30 07:50:00
8:20 AM,37.4,33.8,87,29.30,4.3,SW,18.4,-,N/A,Rain,Rain,230,2012-12-30 08:20:00
8:50 AM,37.4,33.8,87,29.30,6.2,SW,16.1,-,N/A,,Scattered Clouds,230,2012-12-30 08:50:00
9:20 AM,37.4,33.8,87,29.30,6.2,SW,20.7,-,N/A,,Scattered Clouds,230,2012-12-30 09:20:00
9:50 AM,39.2,35.6,87,29.30,6.2,SW,17.3,-,N/A,,Scattered Clouds,220,2012-12-30 09:50:00
10:20 AM,39.2,35.6,87,29.33,6.2,SW,19.6,-,N/A,Rain,Light Rain,230,2012-12-30 10:20:00
10:50 AM,39.2,35.6,87,29.33,5.6,SW,23.0,35.7,N/A,Rain,Light Rain,230,2012-12-30 10:50:00
11:20 AM,39.2,37.4,93,29.33,6.2,WSW,20.7,32.2,N/A,,Mostly Cloudy,240,2012-12-30 11:20:00
11:50 AM,39.2,37.4,93,29.33,6.2,WSW,21.9,-,N/A,Rain,Light Rain,240,2012-12-30 11:50:00
12:20 PM,41.0,37.4,87,29.33,4.3,WSW,21.9,-,N/A,Rain,Light Rain,250,2012-12-30 12:20:00
12:50 PM,41.0,37.4,87,29.30,6.2,WSW,25.3,-,N/A,,Scattered Clouds,240,2012-12-30 12:50:00
1:20 PM,41.0,35.6,81,29.30,6.2,WSW,26.5,38.0,N/A,Rain,Light Rain,240,2012-12-30 13:20:00
1:50 PM,41.0,35.6,81,29.30,6.2,WSW,25.3,-,N/A,,Scattered Clouds,240,2012-12-30 13:50:00
2:20 PM,41.0,35.6,81,29.33,6.2,WSW,23.0,-,N/A,,Scattered Clouds,240,2012-12-30 14:20:00
2:50 PM,41.0,37.4,87,29.33,3.1,West,17.3,29.9,N/A,Rain,Rain Showers,260,2012-12-30 14:50:00
3:20 PM,41.0,37.4,87,29.33,6.2,WSW,21.9,-,N/A,,Partly Cloudy,250,2012-12-30 15:20:00
3:50 PM,41.0,37.4,87,29.33,6.2,WSW,23.0,-,N/A,,Scattered Clouds,240,2012-12-30 15:50:00
4:20 PM,41.0,37.4,87,29.33,6.2,WSW,21.9,-,N/A,,Scattered Clouds,240,2012-12-30 16:20:00
4:50 PM,41.0,37.4,87,29.33,6.2,WSW,21.9,-,N/A,,Scattered Clouds,240,2012-12-30 16:50:00
5:20 PM,41.0,37.4,87,29.33,6.2,WSW,27.6,-,N/A,,Mostly Cloudy,240,2012-12-30 17:20:00
5:50 PM,42.8,39.2,87,29.33,6.2,SW,24.2,-,N/A,Rain,Light Rain,230,2012-12-30 17:50:00
6:20 PM,42.8,39.2,87,29.33,6.2,SW,19.6,-,N/A,Rain,Light Rain,230,2012-12-30 18:20:00
6:50 PM,42.8,39.2,87,29.33,6.2,SW,21.9,-,N/A,Rain,Light Rain,230,2012-12-30 18:50:00
7:20 PM,42.8,39.2,87,29.33,6.2,SW,21.9,-,N/A,Rain,Light Rain,230,2012-12-30 19:20:00
7:50 PM,42.8,39.2,87,29.30,6.2,SW,16.1,-,N/A,Rain,Light Rain,230,2012-12-30 19:50:00
8:20 PM,42.8,39.2,87,29.30,6.2,WSW,11.5,-,N/A,Rain,Light Rain,240,2012-12-30 20:20:00
8:50 PM,42.8,39.2,87,29.27,6.2,West,5.8,-,N/A,Rain,Light Rain,260,2012-12-30 20:50:00
9:20 PM,44.6,42.8,93,29.27,6.2,WSW,11.5,-,N/A,Rain,Light Rain,250,2012-12-30 21:20:00
9:50 PM,48.2,44.6,87,29.24,6.2,WSW,18.4,-,N/A,Rain,Light Rain,240,2012-12-30 21:50:00
10:20 PM,50.0,46.4,87,29.24,6.2,WSW,23.0,-,N/A,Rain,Light Rain,240,2012-12-30 22:20:00
10:50 PM,50.0,46.4,87,29.24,6.2,SW,24.2,-,N/A,Rain,Light Rain,230,2012-12-30 22:50:00
11:20 PM,50.0,46.4,87,29.24,6.2,SW,26.5,39.1,N/A,Rain,Light Rain,230,2012-12-30 23:20:00
11:50 PM,50.0,46.4,87,29.24,6.2,SW,26.5,-,N/A,Rain,Light Rain,230,2012-12-30 23:50:00